Location: Gälforsberget
(66.6500°N, 22.4167°E)
Time: 07:06:37
(UTC+00:00)

Cosmos 1697 Rocket - Pass Details

Date: 11 April 2026
Orbit: 832 x 842 km, 71.0° (Epoch: 12 May)

Event Time Altitude Azimuth Distance (km) Brightness Sun altitude
Rises 19:42:56 0° 276° (W) 3,406 6.7 -8.9°
Reaches altitude 10° 19:45:26 10° 281° (W) 2,471 6.0 -9.0°
Maximum altitude 19:51:01 56° 359° (N) 1,002 3.4 -9.4°
Drops below altitude 10° 19:56:35 10° 78° (ENE) 2,466 4.9 -9.8°
Sets 19:59:05 0° 83° (E) 3,399 5.5 -9.9°
